Regional Weather Roundup
Issued by NWS

Home | Current Version | Previous Version | Text Only | Print | Product List | Glossary Off
Versions: 1 2 3 4 5 6 7 8 9 10 11 12 13 14 15 16 17 18 19 20 21 22 23 24 25 26 27 28 29 30 31 32 33 34 35 36 37 38 39 40 41 42 43 44 45 46 47 48 49 50

012
ASUS45 KSLC 272210
RWRUT

UTAH REGIONAL WEATHER ROUNDUP
NATIONAL WEATHER SERVICE SALT LAKE CITY UT
400 PM MDT THU APR 27 2017

UTZ001>011-023>025-272300-

NORTHERN UTAH

CITY           SKY/WX    TMP DP  RH WIND       PRES   REMARKS
BRIGHAM CITY   PTSUNNY   49  24  37 W20       29.81F
DUGWAY         PTSUNNY   50  26  38 NW21G30   29.82F
HILL AFB       PTSUNNY   43  28  55 N8        29.81F
LOGAN          NOT AVBL
OGDEN          CLOUDY    44  27  51 VRB3      29.80F
SALT LAKE CITY PTSUNNY   50  23  34 NW17G24   29.82F
TOOELE VALLEY  PTSUNNY   46  28  49 NW20      29.83F
WENDOVER       MOSUNNY   52  19  27 NW20G25   29.83
HEBER CITY     PTSUNNY   43  21  42 NW7       29.79F
WEST JORDAN    CLOUDY    49  32  53 W10G30    29.83F

$$

UTZ011>015-024>027-272300-

CENTRAL/NORTHEAST UTAH

CITY           SKY/WX    TMP DP  RH WIND       PRES   REMARKS
PROVO AIRPORT  SUNNY     48  26  42 N15G25    29.83F
MOAB/CANYONLAN PTSUNNY   60  11  14 W29G35    29.65F
DELTA          PTSUNNY   52  23  32 N13G20    29.80F
PRICE          MOSUNNY   49  18  29 W17G35    29.72F
ROOSEVELT      SUNNY     54  18  24 W23G38    29.68S
VERNAL         CLOUDY    49  20  31 E10       29.63R

$$

UTZ013>016-019>022-027-272300-

SOUTHERN UTAH

CITY           SKY/WX    TMP DP  RH WIND       PRES   REMARKS
BRYCE CANYON   MOSUNNY   50  21  32 W17G29    29.79F
CEDAR CITY     MOSUNNY   61  20  20 W18G24    29.75F
MILFORD        CLOUDY    54  25  32 NE9G16    29.78F
ST GEORGE      PTCLDY    73  27  18 W20G25    29.67F
HANKSVILLE     MOSUNNY   57  14  18 NW23G37   29.73S
BLANDING       MOSUNNY   58  13  17 NW16G25   29.74S

$$

REGIONAL REPORTS     COLORADO/ARIZONA

CITY           SKY/WX    TMP DP  RH WIND       PRES   REMARKS
CRAIG, CO      CLOUDY    42  34  73 SW17      29.67F
GRAND JUNCTION CLOUDY    51  28  41 NE12      29.63R
RIFLE, CO      CLOUDY    51  24  34 N10G17    29.61F
MONTROSE, CO   SUNNY     58   0   9 W21G31    29.63S
CORTEZ, CO     CLOUDY    57  27  31 W17G28    29.66F
COLORADO CITY    N/A     68  23  18 NW17G36   29.77F
PAGE, AZ       MOSUNNY   69  18  14 W10G24    29.66F
GRAND CANYON   MOSUNNY   62  24  23 W15G28    29.78F
KINGMAN, AZ    PTSUNNY   77  27  15 NW13G26   29.74F
FLAGSTAFF, AZ  PTSUNNY   64  16  15 W24G37    29.79F

$$

REGIONAL REPORTS    NEVADA/IDAHO/WYOMING

CITY           SKY/WX    TMP DP  RH WIND       PRES   REMARKS
LAS VEGAS, NV  PTSUNNY   83  17   8 N14G32    29.65F
ELY, NY        PTSUNNY   50  16  25 NW18G29   29.85S
ELKO, NV       CLOUDY    44  29  55 W20       29.91R
POCATELLO, ID  CLOUDY    37  34  89 E9        29.80F WCI  30
BURLEY, ID     LGT RAIN  47  24  40 W25G40    29.83S
FORT BRIDGER,  MOCLDY    42  24  50 W29G37    29.76S
EVANSTON, WY   CLOUDY    39  23  52 W23G33    29.75S WCI  28
ROCK SPRINGS,  CLOUDY    44  20  38 W26G40    29.64S
KEMMERER, WY     N/A     36  23  60 W23G30    29.72S WCI  24

$$




USA.gov is the U.S. government's official web portal to all federal, state and local government web resources and services.